Weather History for Warrenton, VA

Change the Weather History Date:

Wednesday, November 21, 2012

  Actual Average (KHEF) Record (KHEF)
Temperature  
Mean Temperature 44 °F -  
Max Temperature 58 °F 53 °F 75 °F (2007)
Min Temperature 29 °F 31 °F 17 °F (2000)
Degree Days  
Heating Degree Days 22    
Moisture  
Dew Point 35 °F    
Average Humidity 86    
Maximum Humidity 100    
Minimum Humidity 48    
Precipitation  
Precipitation 0.00 in - - ()
Sea Level Pressure  
Sea Level Pressure 30.18 in    
Wind  
Wind Speed 1 mph (NNE)    
Max Wind Speed 9 mph    
Max Gust Speed 16 mph    
Visibility 7 miles    
Events Fog    
Averages and records for this station are not official NWS values.
T = Trace of Precipitation, MM = Missing Value Source: NWS Daily Summary

Daily Weather History Graph

Daily Weather History Graph

Search for Another Location

Airport:

Trip Planner

Search our weather history database for the weather conditions in past years. The results will help you decide how hot, cold, wet, or windy it might be!

Date:

Astronomy

Nov. 21, 2012 Rise Set
Actual Time 6:59 AM EST 4:53 PM EST
Civil Twilight 6:31 AM EST 5:22 PM EST
Nautical Twilight 5:58 AM EST 5:54 PM EST
Astronomical Twilight 5:26 AM EST 6:26 PM EST
Moon 1:05 PM EST (11/21) 12:21 AM EST (11/21)
Length of Visible Light 10h 51m
Length of Day
9h 53m
First Quarter, 61% of the Moon is Illuminated
Nov 21
First Quarter
Nov 28
Full
Dec 6
Last Quarter
Dec 13
New
Dec 20
First Quarter

Hourly Weather History & Observations

Time (EST) Temp. Windchill Dew Point Humidity Pressure Visibility Wind Dir Wind Speed Gust Speed Precip Events Conditions
12:15 AM 34.3 °F - 34.3 °F 100% 30.13 in 2.0 mi Calm Calm - N/A   Scattered Clouds
12:35 AM 32.9 °F - 32.9 °F 100% 30.13 in 5.0 mi Calm Calm - N/A   Scattered Clouds
12:55 AM 32.5 °F - 32.5 °F 100% 30.13 in 0.5 mi Calm Calm - N/A Fog Fog
1:15 AM 32.0 °F - 32.0 °F 100% 30.13 in 0.2 mi Calm Calm - N/A Fog Fog
1:35 AM 32.5 °F - 32.5 °F 100% 30.13 in 2.5 mi Calm Calm - N/A   Clear
1:55 AM 32.0 °F - 32.0 °F 100% 30.13 in 1.8 mi Calm Calm - N/A   Mist
2:15 AM 32.0 °F - 32.0 °F 100% 30.13 in 0.8 mi Calm Calm - N/A   Mist
2:35 AM 31.3 °F - 31.3 °F 100% 30.14 in 4.0 mi Calm Calm - N/A   Clear
2:55 AM 31.6 °F - 31.6 °F 100% 30.14 in 4.0 mi Calm Calm - N/A   Clear
3:15 AM 32.0 °F - 32.0 °F 100% 30.14 in 1.8 mi Calm Calm - N/A   Mist
3:35 AM 29.8 °F - 29.8 °F 100% 30.13 in 4.0 mi Calm Calm - N/A   Clear
3:55 AM 30.7 °F - 30.7 °F 100% 30.13 in 4.0 mi Calm Calm - N/A   Clear
4:15 AM 31.1 °F - 31.1 °F 100% 30.13 in 3.0 mi Calm Calm - N/A   Clear
4:35 AM 31.3 °F - 31.3 °F 100% 30.14 in 3.0 mi Calm Calm - N/A   Clear
4:55 AM 30.4 °F - 30.4 °F 100% 30.14 in 2.5 mi Calm Calm - N/A   Clear
5:15 AM 29.7 °F - 29.7 °F 100% 30.15 in 3.0 mi Calm Calm - N/A   Mostly Cloudy
5:35 AM 29.8 °F - 29.8 °F 100% 30.15 in 5.0 mi Calm Calm - N/A   Mostly Cloudy
5:55 AM 30.7 °F - 30.7 °F 100% 30.15 in 7.0 mi Calm Calm - N/A   Mostly Cloudy
6:15 AM 29.8 °F - 29.8 °F 100% 30.16 in 5.0 mi Calm Calm - N/A   Clear
6:55 AM 29.8 °F - 29.8 °F 100% 30.18 in 2.0 mi Calm Calm - N/A   Clear
7:15 AM 29.7 °F - 29.7 °F 100% 30.18 in 0.8 mi Calm Calm - N/A   Mist
7:35 AM 29.3 °F - 29.3 °F 100% 30.19 in 5.0 mi Calm Calm - N/A   Clear
7:55 AM 30.7 °F - 30.7 °F 100% 30.19 in 5.0 mi Calm Calm - N/A   Clear
8:15 AM 33.1 °F - 33.1 °F 100% 30.20 in 4.0 mi Calm Calm - N/A   Clear
8:35 AM 34.9 °F - 34.9 °F 100% 30.20 in 5.0 mi Calm Calm - N/A   Clear
8:55 AM 38.8 °F - 38.8 °F 100% 30.21 in 5.0 mi Calm Calm - N/A   Clear
9:15 AM 42.6 °F - 42.4 °F 99% 30.21 in 5.0 mi Calm Calm - N/A   Clear
9:35 AM 46.6 °F - 44.2 °F 92% 30.21 in 5.0 mi NE 3.5 mph - N/A   Clear
9:55 AM 47.7 °F - 44.6 °F 89% 30.22 in 5.0 mi NNE 4.6 mph - N/A   Clear
10:15 AM 50.0 °F - 45.1 °F 83% 30.22 in 7.0 mi NNE 6.9 mph - N/A   Clear
10:35 AM 51.1 °F - 45.0 °F 80% 30.22 in 7.0 mi NE 4.6 mph - N/A   Clear
10:55 AM 52.2 °F - 44.2 °F 74% 30.21 in 10.0 mi NE 6.9 mph - N/A   Clear
11:15 AM 53.6 °F - 43.0 °F 67% 30.21 in 10.0 mi NNE 5.8 mph - N/A   Clear
11:55 AM 55.4 °F - 40.5 °F 57% 30.20 in 10.0 mi NE 6.9 mph - N/A   Clear
12:15 PM 55.4 °F - 40.1 °F 56% 30.19 in 10.0 mi NNE 4.6 mph - N/A   Clear
12:35 PM 56.1 °F - 40.8 °F 57% 30.18 in 10.0 mi NNE 9.2 mph - N/A   Clear
12:55 PM 56.8 °F - 39.7 °F 53% 30.18 in 10.0 mi NE 8.1 mph - N/A   Clear
1:15 PM 57.0 °F - 40.1 °F 53% 30.17 in 10.0 mi North 5.8 mph - N/A   Clear
1:35 PM 57.4 °F - 39.9 °F 52% 30.17 in 10.0 mi NNE 3.5 mph - N/A   Clear
1:55 PM 57.4 °F - 38.8 °F 50% 30.16 in 10.0 mi North 5.8 mph - N/A   Clear
2:15 PM 57.7 °F - 38.1 °F 48% 30.16 in 10.0 mi NNE 6.9 mph 16.1 mph N/A   Clear
2:35 PM 58.1 °F - 38.7 °F 48% 30.16 in 10.0 mi North 5.8 mph - N/A   Clear
2:55 PM 57.9 °F - 39.7 °F 51% 30.16 in 10.0 mi NNE 8.1 mph - N/A   Clear
3:15 PM 57.6 °F - 39.0 °F 50% 30.16 in 10.0 mi NNE 8.1 mph - N/A   Clear
3:35 PM 57.2 °F - 39.0 °F 51% 30.16 in 10.0 mi NNE 8.1 mph - N/A   Clear
3:55 PM 56.5 °F - 39.0 °F 52% 30.16 in 10.0 mi NNE 8.1 mph - N/A   Clear
4:15 PM 55.4 °F - 38.1 °F 52% 30.18 in 10.0 mi NE 5.8 mph - N/A   Clear
4:35 PM 54.0 °F - 37.8 °F 54% 30.18 in 10.0 mi NE 3.5 mph - N/A   Clear
4:55 PM 52.7 °F - 37.6 °F 56% 30.18 in 10.0 mi Calm Calm - N/A   Clear
5:15 PM 42.8 °F 41.1 °F 37.4 °F 81% 30.18 in 10.0 mi North 3.5 mph - N/A   Clear
5:35 PM 43.3 °F - 36.3 °F 76% 30.18 in 10.0 mi Calm Calm - N/A   Clear
5:55 PM 42.1 °F - 36.9 °F 82% 30.19 in 10.0 mi Calm Calm - N/A   Clear
6:15 PM 40.3 °F - 36.5 °F 86% 30.19 in 10.0 mi Calm Calm - N/A   Clear
6:35 PM 40.3 °F - 36.0 °F 85% 30.20 in 10.0 mi Calm Calm - N/A   Clear
6:55 PM 38.8 °F - 36.7 °F 92% 30.20 in 10.0 mi Calm Calm - N/A   Clear
7:15 PM 37.9 °F - 36.0 °F 93% 30.21 in 10.0 mi Calm Calm - N/A   Clear
7:35 PM 38.1 °F - 36.1 °F 93% 30.21 in 10.0 mi Calm Calm - N/A   Clear
7:55 PM 35.2 °F - 34.7 °F 98% 30.21 in 10.0 mi Calm Calm - N/A   Clear
8:15 PM 35.2 °F - 35.2 °F 100% 30.21 in 10.0 mi Calm Calm - N/A   Clear
8:35 PM 33.3 °F - 33.3 °F 100% 30.21 in 10.0 mi Calm Calm - N/A   Clear
8:55 PM 32.9 °F - 32.9 °F 100% 30.21 in 10.0 mi Calm Calm - N/A   Clear
9:15 PM 34.3 °F - 34.3 °F 100% 30.21 in 10.0 mi Calm Calm - N/A   Clear
9:35 PM 33.3 °F - 33.3 °F 100% 30.21 in 10.0 mi Calm Calm - N/A   Clear
9:55 PM 32.2 °F - 32.2 °F 100% 30.21 in 10.0 mi Calm Calm - N/A   Clear
10:15 PM 32.0 °F - 32.0 °F 100% 30.21 in 10.0 mi Calm Calm - N/A   Clear
10:35 PM 32.0 °F - 32.0 °F 100% 30.21 in 10.0 mi Calm Calm - N/A   Clear
10:55 PM 30.6 °F - 30.6 °F 100% 30.21 in 10.0 mi Calm Calm - N/A   Clear
11:15 PM 31.5 °F - 31.5 °F 100% 30.21 in 10.0 mi Calm Calm - N/A   Clear
11:35 PM 30.4 °F - 30.4 °F 100% 30.21 in 7.0 mi Calm Calm - N/A   Clear
11:55 PM 29.7 °F - 29.7 °F 100% 30.21 in 7.0 mi Calm Calm - N/A   Clear